VK6HGR-1 Weather Reports


Display with metric or nautical units.
time (UTC)temp
F
wind
direction
speed
MPH
gust
MPH
rain 1hr
in
rain 24hr
in
rain mn
in
humidity
%
barometer
mb
20260509223011 51 0.0 0.0 0.00 0.00 0.00 66 1023.5
20260509221512 51 0.0 0.0 0.00 0.00 0.00 66 1023.3
20260509220010 51 0.0 0.0 0.00 0.00 0.00 65 1023.1
20260509214513 51 0.0 0.0 0.00 0.00 0.00 65 1023.1
20260509213013 51 0.0 0.0 0.00 0.00 0.00 65 1023.0
20260509211512 51 0.0 0.0 0.00 0.00 0.00 65 1022.8
20260509210011 51 0.0 0.0 0.00 0.00 0.00 64 1022.9
20260509204510 51 0.0 0.0 0.00 0.00 0.00 63 1022.7
20260509203012 52 0.0 0.0 0.00 0.00 0.00 63 1022.4
20260509201512 52 0.0 0.0 0.00 0.00 0.00 63 1022.3
20260509200011 52 0.0 0.0 0.00 0.00 0.00 63 1022.3
20260509194513 52 0.0 0.0 0.00 0.00 0.00 62 1022.3
20260509193017 52 0.0 0.0 0.00 0.00 0.00 62 1022.3
20260509191512 53 0.0 0.0 0.00 0.00 0.00 61 1022.2
20260509190010 53 0.0 0.0 0.00 0.00 0.00 61 1022.2
20260509184515 53 0.0 0.0 0.00 0.00 0.00 62 1022.2
20260509183015 53 0.0 0.0 0.00 0.00 0.00 62 1022.2
20260509181512 53 0.0 0.0 0.00 0.00 0.00 63 1022.2
20260509180012 53 0.0 0.0 0.00 0.00 0.00 61 1022.4
20260509174510 54 0.0 0.0 0.00 0.00 0.00 59 1022.4
20260509173013 54 0.0 0.0 0.00 0.00 0.00 59 1022.4
20260509171513 55 0.0 0.0 0.00 0.00 0.00 59 1022.4
20260509170012 55 0.0 0.0 0.00 0.00 0.00 58 1022.4
20260509164510 55 0.0 0.0 0.00 0.00 0.00 58 1022.4
20260509163011 55 0.0 0.0 0.00 0.00 0.00 58 1022.4
20260509161510 56 0.0 0.0 0.00 0.00 0.00 57 1022.5
20260509160012 56 0.0 0.0 0.00 0.00 0.00 56 1022.6
20260509154513 56 0.0 0.0 0.00 0.00 0.00 56 1022.7
20260509153011 57 0.0 0.0 0.00 0.00 0.00 55 1022.8
20260509151510 57 0.0 0.0 0.00 0.00 0.00 54 1022.8
20260509150012 58 0.0 0.0 0.00 0.00 0.00 53 1022.8
20260509144512 58 0.0 0.0 0.00 0.00 0.00 53 1022.9
20260509143011 58 0.0 0.0 0.00 0.00 0.00 52 1023.0
20260509141512 59 0.0 0.0 0.00 0.00 0.00 52 1022.9
20260509140013 59 0.0 0.0 0.00 0.00 0.00 51 1022.9
20260509134512 60 0.0 0.0 0.00 0.00 0.00 50 1022.8
20260509133012 61 0.0 0.0 0.00 0.00 0.00 49 1022.8
20260509131514 61 0.0 0.0 0.00 0.00 0.00 49 1022.8
20260509130013 62 0.0 0.0 0.00 0.00 0.00 49 1022.6
20260509124510 63 0.0 0.0 0.00 0.00 0.00 46 1022.5
20260509123013 63 0.0 0.0 0.00 0.00 0.00 44 1022.5
20260509121511 64 0.0 0.0 0.00 0.00 0.00 43 1022.3
20260509120012 64 0.0 0.0 0.00 0.00 0.00 43 1022.2
20260509114511 65 0.0 0.0 0.00 0.00 0.00 42 1022.3
20260509113011 65 0.0 0.0 0.00 0.00 0.00 41 1022.2
20260509111514 66 0.0 0.0 0.00 0.00 0.00 40 1022.2
20260509110013 67 0.0 0.0 0.00 0.00 0.00 39 1022.1
20260509104511 68 0.0 0.0 0.00 0.00 0.00 38 1022.0
20260509103016 69 0.0 0.0 0.00 0.00 0.00 38 1022.1
20260509101512 69 0.0 0.0 0.00 0.00 0.00 37 1022.0
20260509100012 70 0.0 0.0 0.00 0.00 0.00 36 1021.8
20260509094512 71 0.0 0.0 0.00 0.00 0.00 36 1021.8
20260509093012 72 0.0 0.0 0.00 0.00 0.00 34 1021.7
20260509091511 73 0.0 0.0 0.00 0.00 0.00 31 1021.5
20260509090015 74 0.0 0.0 0.00 0.00 0.00 30 1021.5
20260509084510 74 0.0 0.0 0.00 0.00 0.00 30 1021.5
20260509083010 75 0.0 0.0 0.00 0.00 0.00 31 1021.4
20260509081511 75 0.0 0.0 0.00 0.00 0.00 30 1021.4
20260509080011 76 0.0 0.0 0.00 0.00 0.00 30 1021.4
20260509074510 76 0.0 0.0 0.00 0.00 0.00 30 1021.3
20260509073013 77 0.0 0.0 0.00 0.00 0.00 30 1021.2
20260509071512 77 0.0 0.0 0.00 0.00 0.00 31 1021.0
20260509070010 76 0.0 0.0 0.00 0.00 0.00 32 1020.9
20260509064511 76 0.0 0.0 0.00 0.00 0.00 31 1020.8
20260509063012 76 0.0 0.0 0.00 0.00 0.00 31 1020.9
20260509061511 76 0.0 0.0 0.00 0.00 0.00 32 1020.9
20260509060011 76 0.0 0.0 0.00 0.00 0.00 32 1021.0
20260509054514 76 0.0 0.0 0.00 0.00 0.00 33 1021.1
20260509053011 76 0.0 0.0 0.00 0.00 0.00 33 1021.3
20260509051513 76 0.0 0.0 0.00 0.00 0.00 34 1021.5
20260509050012 75 0.0 0.0 0.00 0.00 0.00 35 1021.8
20260509044512 75 0.0 0.0 0.00 0.00 0.00 37 1022.1
20260509043016 74 0.0 0.0 0.00 0.00 0.00 37 1022.4
20260509041511 74 0.0 0.0 0.00 0.00 0.00 37 1022.8
20260509040010 73 0.0 0.0 0.00 0.00 0.00 37 1023.1
20260509034513 72 0.0 0.0 0.00 0.00 0.00 38 1023.5
20260509033016 72 0.0 0.0 0.00 0.00 0.00 39 1023.9
20260509031511 71 0.0 0.0 0.00 0.00 0.00 39 1024.3
20260509030013 70 0.0 0.0 0.00 0.00 0.00 41 1024.5
20260509024511 70 0.0 0.0 0.00 0.00 0.00 41 1024.7
20260509023012 69 0.0 0.0 0.00 0.00 0.00 42 1024.9
20260509021511 68 0.0 0.0 0.00 0.00 0.00 44 1025.1
20260509020011 67 0.0 0.0 0.00 0.00 0.00 44 1025.0
20260509014511 66 0.0 0.0 0.00 0.00 0.00 45 1025.3
20260509013012 65 0.0 0.0 0.00 0.00 0.00 47 1025.2
20260509011700 64 0.0 0.0 0.00 0.00 0.00 48 1025.4
20260509011511 64 0.0 0.0 0.00 0.00 0.00 48 1025.4
20260509010012 63 0.0 0.0 0.00 0.00 0.00 49 1025.5
20260509004512 63 0.0 0.0 0.00 0.00 0.00 50 1025.5
20260509003010 62 0.0 0.0 0.00 0.00 0.00 51 1025.5
20260509001512 61 0.0 0.0 0.00 0.00 0.00 52 1025.4
20260509000013 61 0.0 0.0 0.00 0.00 0.00 53 1025.3
20260508234511 60 0.0 0.0 0.00 0.00 0.00 54 1025.2
20260508233014 59 0.0 0.0 0.00 0.00 0.00 54 1025.1
20260508231511 59 0.0 0.0 0.00 0.00 0.00 54 1025.1
20260508230014 59 0.0 0.0 0.00 0.00 0.00 53 1025.0
20260508224510 60 0.0 0.0 0.00 0.00 0.00 53 1024.8